Regional Weather Roundup
Issued by NWS

Home | Current Version | Previous Version | Graphics & Text | Print | Product List | Glossary On
Versions: 1 2 3 4 5 6 7 8 9 10 11 12 13 14 15 16 17 18 19 20 21 22 23 24 25 26 27 28 29 30 31 32 33 34 35 36 37 38 39 40 41 42 43 44 45 46 47 48 49 50
309
ASUS43 KFSD 271702
RWRSD

WEATHER ROUNDUP FOR SOUTH DAKOTA
NATIONAL WEATHER SERVICE SIOUX FALLS SD
1200 PM CDT SAT AUG 27 2016

NOTE: "FAIR" INDICATES FEW OR NO CLOUDS BELOW 12,000 FEET WITH NO
SIGNIFICANT WEATHER AND/OR OBSTRUCTIONS TO VISIBILITY.


SDZ001>005-009-010-012>017-271800-
NORTHWEST AND NORTH CENTRAL SOUTH DAKOTA

CITY           SKY/WX    TMP DP  RH WIND       PRES   REMARKS
BUFFALO          N/A     70  54  56 VRB6      29.89F
FAITH            N/A     72  53  51 S7        29.95F
MOBRIDGE       SUNNY     72  57  59 VRB7      29.92F
$$

SDZ012>016-024>037-041>051-057-063-072>074-271800-
SOUTHWEST AND SOUTH CENTRAL SOUTH DAKOTA

CITY           SKY/WX    TMP DP  RH WIND       PRES   REMARKS
RAPID CTY ARPT SUNNY     70  55  59 S12       29.97F
PIERRE         SUNNY     72  55  55 VRB5      29.94F
CUSTER         SUNNY     67  45  45 W10G18    30.07F
ELLSWORTH AFB  SUNNY     70  56  59 S12       29.96F
PHILIP         SUNNY     72  56  57 VRB3      29.96F
PINE RIDGE     SUNNY     67  59  75 SW13      30.00F
WINNER         FAIR      78  55  44 S5        29.97F
$$

SDZ004>011-016>023-039-040-271800-
NORTHEAST SOUTH DAKOTA

CITY           SKY/WX    TMP DP  RH WIND       PRES   REMARKS
ABERDEEN       CLOUDY    68  60  75 S13       29.96F
WATERTOWN      CLOUDY    67  58  72 S9        29.99F
BROOKINGS      CLOUDY    64  59  83 SE3       30.01F
$$

SDZ017-020-022-023-036>040-048>070-271800-
SOUTHEAST SOUTH DAKOTA

CITY           SKY/WX    TMP DP  RH WIND       PRES   REMARKS
SIOUX FALLS    CLOUDY    67  62  84 SW3       30.01F
HURON          CLOUDY    68  60  75 S8        29.97F
CHAMBERLAIN    SUNNY     75  58  55 SW8       29.97F
MITCHELL       MOSUNNY   72  61  68 S7        29.98F
YANKTON        MOSUNNY   72  59  64 SW6       29.98F
$$

ABBREVIATIONS USED IN REMARKS
   TC - TEMPERATURE IN CELSIUS
  WCI - WIND CHILL INDEX
   HX - HEAT INDEX
  VSB - VISIBILITY





USA.gov is the U.S. government's official web portal to all federal, state and local government web resources and services.